Weather reports worldwide

Advertisment
Bournemouth Airport, United Kingdom (3862): temperature & dewpoint: 06.11.2019 16:00:00 - 12.11.2019 16:00:00 (GMT)Bournemouth Airport, United Kingdom (3862): temperature -20cm & temperature -100cm: 06.11.2019 16:00:00 - 12.11.2019 16:00:00 (GMT)Bournemouth Airport, United Kingdom (3862): wind speed: 06.11.2019 16:00:00 - 12.11.2019 16:00:00 (GMT)Bournemouth Airport, United Kingdom (3862): wind direction: 06.11.2019 16:00:00 - 12.11.2019 16:00:00 (GMT)Bournemouth Airport, United Kingdom (3862): reduced air pressure: 06.11.2019 16:00:00 - 12.11.2019 16:00:00 (GMT)Bournemouth Airport, United Kingdom (3862): visibility: 06.11.2019 16:00:00 - 12.11.2019 16:00:00 (GMT)Bournemouth Airport, United Kingdom (3862): sunshine duration: 06.11.2019 16:00:00 - 12.11.2019 16:00:00 (GMT)Bournemouth Airport, United Kingdom (3862): precipitation: 06.11.2019 16:00:00 - 12.11.2019 16:00:00 (GMT)
Date & Time tt [°C] td [°C] tt -20cm [°C] tt -100cm [°C] ff [km/h] ff [kn] dd ppp [hPa] vv [km] sd [min] rr [mm]
12.11.2019 16:00:00 8,0 5,0 - - 26 14 W - 10 - -
12.11.2019 15:00:00 8,0 5,0 - - 21 11 W - 10 - -
12.11.2019 14:00:00 8,0 4,0 - - 24 13 W - 10 - -
12.11.2019 13:00:00 9,0 3,0 - - 34 18 W - 10 - -
12.11.2019 12:00:00 9,0 3,0 - - 28 15 W - 10 - -
12.11.2019 11:00:00 8,0 3,0 - - 22 12 W - 10 - -
12.11.2019 10:00:00 7,0 3,0 - - 16 9 W - 10 - -
12.11.2019 09:00:00 5,0 2,0 - - 21 11 W - 10 - -
12.11.2019 08:00:00 3,0 1,0 - - 15 8 W - 10 - -
12.11.2019 07:00:00 3,0 1,0 - - 11 6 WSW - 10 - -
12.11.2019 06:00:00 3,0 1,0 - - 16 9 W - 10 - -
12.11.2019 05:00:00 - - - - - - - - - - -
12.11.2019 04:00:00 - - - - - - - - - - -
12.11.2019 03:00:00 - - - - - - - - - - -
12.11.2019 02:00:00 - - - - - - - - - - -
12.11.2019 01:00:00 - - - - - - - - - - -
12.11.2019 00:00:00 - - - - - - - - - - -
11.11.2019 23:00:00 - - - - - - - - - - -
11.11.2019 22:00:00 - - - - - - - - - - -
11.11.2019 21:00:00 5,0 2,0 - - 9 5 W - 10 - -
11.11.2019 20:00:00 5,0 2,0 - - 9 5 W - 10 - -
11.11.2019 19:00:00 6,0 2,0 - - 18 10 W - 10 - -
11.11.2019 18:00:00 6,0 3,0 - - 15 8 WSW - 10 - -
11.11.2019 17:00:00 6,0 2,0 - - 15 8 WSW - 10 - -
11.11.2019 16:00:00 8,0 3,0 - - 22 12 W - 10 - -
11.11.2019 15:00:00 10,0 3,0 - - 22 12 W - 10 - -
11.11.2019 14:00:00 10,0 3,0 - - 26 14 WNW - 10 - -
11.11.2019 13:00:00 10,0 2,0 - - 35 19 WNW - 10 - -
11.11.2019 12:00:00 9,0 3,0 - - 35 19 WNW - 10 - -
11.11.2019 11:00:00 9,0 4,0 - - 35 19 WNW - 10 - -
11.11.2019 10:00:00 9,0 4,0 - - 26 14 WNW - 10 - -
11.11.2019 09:00:00 8,0 4,0 - - 24 13 WNW - 10 - -
11.11.2019 08:00:00 7,0 4,0 - - 21 11 WNW - 10 - -
11.11.2019 07:00:00 7,0 4,0 - - 21 11 NW - 10 - -
11.11.2019 06:00:00 8,0 5,0 - - 24 13 WNW - 10 - -
11.11.2019 05:00:00 - - - - - - - - - - -
11.11.2019 04:00:00 - - - - - - - - - - -
11.11.2019 03:00:00 - - - - - - - - - - -
11.11.2019 02:00:00 - - - - - - - - - - -
11.11.2019 01:00:00 - - - - - - - - - - -
11.11.2019 00:00:00 - - - - - - - - - - -
10.11.2019 23:00:00 5,0 4,0 - - 4 2 NW - 7 - -
10.11.2019 22:00:00 4,0 4,0 - - 2 1 S - 7 - -
10.11.2019 21:00:00 4,0 3,0 - - 5 3 NW - 8 - -
10.11.2019 20:00:00 3,0 3,0 - - 8 4 NNW - 7 - -
10.11.2019 19:00:00 4,0 3,0 - - 4 2 SE - 7 - -
10.11.2019 18:00:00 3,0 3,0 - - 4 2 WNW - 6 - -
10.11.2019 17:00:00 6,0 4,0 - - 4 2 E - 10 - -
10.11.2019 16:00:00 8,0 4,0 - - 8 4 N - 10 - -
10.11.2019 15:00:00 9,0 5,0 - - 15 8 NNE - 10 - -
10.11.2019 14:00:00 9,0 5,0 - - 16 9 NE - 10 - -
10.11.2019 13:00:00 10,0 6,0 - - 15 8 NE - 10 - -
10.11.2019 12:00:00 9,0 6,0 - - 16 9 NNE - 10 - -
10.11.2019 11:00:00 8,0 6,0 - - 18 10 NNE - 10 - -
10.11.2019 10:00:00 8,0 6,0 - - 21 11 NNE - 10 - -
10.11.2019 09:00:00 7,0 6,0 - - 21 11 NE - 10 - -
10.11.2019 08:00:00 7,0 6,0 - - 18 10 NE - 10 - -
10.11.2019 07:00:00 7,0 6,0 - - 15 8 NE - 10 - -
10.11.2019 06:00:00 - - - - - - - - - - -
10.11.2019 05:00:00 - - - - - - - - - - -
10.11.2019 04:00:00 - - - - - - - - - - -
10.11.2019 03:00:00 - - - - - - - - - - -
10.11.2019 02:00:00 - - - - - - - - - - -
10.11.2019 01:00:00 - - - - - - - - - - -
10.11.2019 00:00:00 - - - - - - - - - - -
09.11.2019 23:00:00 - - - - - - - - - - -
09.11.2019 22:00:00 - - - - - - - - - - -
09.11.2019 21:00:00 3,0 2,0 - - 13 7 WNW - 7 - -
09.11.2019 20:00:00 - - - - - - - - - - -
09.11.2019 19:00:00 4,0 4,0 - - 9 5 WNW - 8 - -
09.11.2019 18:00:00 6,0 4,0 - - 11 6 WNW - 10 - -
09.11.2019 17:00:00 7,0 4,0 - - 15 8 W - 10 - -
09.11.2019 16:00:00 8,0 6,0 - - 21 11 W - 10 - -
09.11.2019 15:00:00 8,0 7,0 - - 21 11 W - 10 - -
09.11.2019 14:00:00 10,0 8,0 - - 18 10 SSW - 10 - -
09.11.2019 13:00:00 9,0 8,0 - - 22 12 SSE - 6 - -
09.11.2019 12:00:00 9,0 8,0 - - 16 9 S - 4,0 - -
09.11.2019 11:00:00 9,0 8,0 - - 13 7 SSE - 7 - -
09.11.2019 10:00:00 3,0 3,0 - - 15 8 E - 10 - -
09.11.2019 09:00:00 0,0 0,0 - - 8 4 NE - 10 - -
09.11.2019 08:00:00 - - - - - - - - - - -
09.11.2019 07:00:00 -3,0 -3,0 - - 4 2 NE - 8 - -
09.11.2019 06:00:00 - - - - - - - - - - -
09.11.2019 05:00:00 - - - - - - - - - - -
09.11.2019 04:00:00 - - - - - - - - - - -
09.11.2019 03:00:00 - - - - - - - - - - 0,0
09.11.2019 02:00:00 - - - - - - - - - - 0,0
09.11.2019 01:00:00 -0,1 -0,7 - - 8 4 W 1013,4 17 0 0,0
09.11.2019 00:00:00 0,0 -0,5 - - 11 6 W 1013,3 13 - 0,0
08.11.2019 23:00:00 -0,2 -0,9 - - 5 3 W 1013,0 18 0 0,0
08.11.2019 22:00:00 1,4 0,8 - - 9 5 WSW 1013,2 14 0 0,0
08.11.2019 21:00:00 0,4 -0,9 - - 8 4 WNW 1012,9 10 0 0,0
08.11.2019 20:00:00 3,3 2,0 - - 4 2 N 1012,5 25 0 0,0
08.11.2019 19:00:00 2,1 0,4 - - 13 7 W 1012,3 10 0 0,0
08.11.2019 18:00:00 4,3 1,3 - - 8 4 NW 1011,9 10 0 0,0
08.11.2019 17:00:00 6,0 2,1 - - 13 7 NNW 1011,3 10 0 0,0
08.11.2019 16:00:00 7,5 3,1 - - 18 10 N 1010,7 10 0 0,0
08.11.2019 15:00:00 8,7 4,3 - - 22 12 N 1009,4 35 24 0,0
08.11.2019 14:00:00 8,9 5,3 - - 22 12 N 1008,8 35 18 0,0
08.11.2019 13:00:00 8,2 5,5 - - 24 13 N 1008,2 10 0 0,0
08.11.2019 12:00:00 6,7 5,6 - - 21 11 N 1007,9 8 0 0,2
08.11.2019 11:00:00 7,0 5,5 - - 22 12 N 1007,2 23 12 0,0
08.11.2019 10:00:00 6,6 6,4 - - 16 9 N 1006,4 17 24 0,0
08.11.2019 09:00:00 2,5 2,3 9,5 11,5 4 2 WNW 1005,8 5 18 0,0
08.11.2019 08:00:00 -1,0 -1,2 - - 4 2 NNW 1005,1 6 0 0,0
08.11.2019 07:00:00 -1,3 -1,5 - - 5 3 NNW 1004,0 11 0 0,0
08.11.2019 06:00:00 -0,8 -0,9 - - 0 0 N 1002,9 0,1 0 0,0
08.11.2019 05:00:00 -0,9 -1,1 - - 5 3 N 1002,1 6 0 0,0
08.11.2019 04:00:00 -0,5 -0,8 - - 2 1 WNW 1001,1 0,4 0 0,0
08.11.2019 03:00:00 0,0 -0,2 - - 4 2 NNW 1000,2 4,5 0 0,0
08.11.2019 02:00:00 -0,4 -0,7 - - 4 2 NW 999,6 2,1 0 0,0
08.11.2019 01:00:00 0,3 0,1 - - 5 3 NW 999,1 4,2 0 0,0
08.11.2019 00:00:00 0,4 0,2 - - 4 2 NW 998,5 1,8 - 0,0
07.11.2019 23:00:00 1,1 0,7 - - 4 2 NNW 997,7 2,3 0 0,0
07.11.2019 22:00:00 2,0 1,7 - - 8 4 N 997,3 11 0 0,0
07.11.2019 21:00:00 1,4 1,0 - - 4 2 NNW 996,9 2,9 0 0,0
07.11.2019 20:00:00 1,1 0,3 - - 0 0 N 996,2 10 0 0,0
07.11.2019 19:00:00 3,3 2,5 - - 2 1 ESE 995,9 28 0 0,0
07.11.2019 18:00:00 5,6 3,7 - - 4 2 W 995,3 40 0 0,0
07.11.2019 17:00:00 6,1 3,9 - - 4 2 SE 994,7 35 0 0,0
07.11.2019 16:00:00 8,2 3,2 - - 8 4 SW 994,2 10 42 0,0
07.11.2019 15:00:00 9,1 4,2 - - 11 6 WSW 994,0 10 6 0,0
07.11.2019 14:00:00 11,0 4,5 - - 15 8 WSW 993,8 10 36 0,0
07.11.2019 13:00:00 10,7 4,4 - - 16 9 W 993,7 10 42 0,0
07.11.2019 12:00:00 10,7 4,4 - - 22 12 WSW 993,6 35 60 0,0
07.11.2019 11:00:00 10,1 5,8 - - 16 9 W 993,9 40 60 0,0
07.11.2019 10:00:00 8,4 4,9 - - 11 6 W 993,7 40 60 0,0
07.11.2019 09:00:00 6,8 4,6 10,4 11,7 11 6 W 993,5 10 42 0,0
07.11.2019 08:00:00 4,8 3,3 - - 15 8 W 993,3 10 0 0,0
07.11.2019 07:00:00 5,1 3,5 - - 16 9 W 992,7 10 0 0,0
07.11.2019 06:00:00 4,9 3,9 - - 13 7 W 992,4 30 0 0,0
07.11.2019 05:00:00 5,4 3,9 - - 13 7 W 992,2 35 0 0,0
07.11.2019 04:00:00 6,1 4,6 - - 13 7 W 992,1 55 0 0,0
07.11.2019 03:00:00 7,5 6,3 - - 16 9 W 992,2 55 0 0,0
07.11.2019 02:00:00 7,4 6,8 - - 9 5 WSW 992,4 60 0 0,0
07.11.2019 01:00:00 7,3 6,7 - - 5 3 WNW 992,5 70 0 0,2
07.11.2019 00:00:00 7,7 7,1 - - 16 9 N 992,9 70 - 4,2
06.11.2019 23:00:00 9,7 9,2 - - 11 6 W 993,7 2,2 0 7,0
06.11.2019 22:00:00 9,7 9,6 - - 4 2 SSE 994,9 6 0 2,2
06.11.2019 21:00:00 7,6 7,5 - - 2 1 E 996,4 6 0 0,0
06.11.2019 20:00:00 6,8 6,6 - - 8 4 NE 997,6 5 0 0,0
06.11.2019 19:00:00 6,4 6,2 - - 4 2 ESE 998,8 8 0 0,0
06.11.2019 18:00:00 7,4 6,9 - - 5 3 SSE 1000,0 10 0 0,0
06.11.2019 17:00:00 8,3 7,7 - - 4 2 - 1000,7 10 0 0,0
06.11.2019 16:00:00 9,3 7,0 - - 2 1 NW 1001,3 35 0 1,2

tt = temperature
td = dewpoint
tt -20cm = temperature -20cm
tt -100cm = temperature -100cm
ff = wind speed
dd = wind direction
ppp = reduced air pressure
vv = visibility
sd = sunshine duration
rr = precipitation

Next stations